FW9404 Weather Reports


time (UTC)temp
C
wind
direction
speed
KPH
gust
KPH
rain 1hr
cm
rain 24hr
cm
rain mn
cm
humidity
%
barometer
mb
20260504060138 18 116 0.0 0.0 0.00 0.00 0.00 82 1019.6
20260504050606 18 108 6.4 14.5 0.00 0.00 0.00 81 1020.4
20260504050103 18 119 1.6 4.8 0.00 0.00 0.00 81 1020.4
20260504045600 18 119 4.8 4.8 0.00 0.00 0.00 81 1020.6
20260504045055 18 123 3.2 4.8 0.00 0.00 0.00 80 1020.7
20260504044553 18 102 0.0 0.0 0.00 0.00 0.00 80 1020.9
20260504044049 18 115 0.0 3.2 0.00 0.00 0.00 80 1021.1
20260504043547 18 103 0.0 0.0 0.00 0.00 0.00 80 1021.2
20260504043044 18 108 3.2 4.8 0.00 0.00 0.00 80 1021.0
20260504042541 19 105 0.0 0.0 0.00 0.00 0.00 80 1021.0
20260504042038 19 104 0.0 0.0 0.00 0.00 0.00 80 1021.1
20260504041533 19 93 3.2 8.0 0.00 0.00 0.00 79 1021.2
20260504041029 19 77 0.0 0.0 0.00 0.00 0.00 79 1021.2
20260504040527 19 113 0.0 0.0 0.00 0.00 0.00 79 1021.3
20260504040024 19 113 0.0 0.0 0.00 0.00 0.00 78 1021.4
20260504035521 19 136 3.2 4.8 0.00 0.00 0.00 78 1021.2
20260504035017 19 130 3.2 4.8 0.00 0.00 0.00 78 1021.1
20260504034515 20 119 0.0 3.2 0.00 0.00 0.00 77 1021.3
20260504034012 20 151 1.6 3.2 0.00 0.00 0.00 77 1021.0
20260504033510 20 154 8.0 11.3 0.00 0.00 0.00 77 1021.2
20260504033007 20 104 0.0 0.0 0.00 0.00 0.00 76 1021.0
20260504032503 20 125 4.8 8.0 0.00 0.00 0.00 76 1021.0
20260504032000 20 103 1.6 3.2 0.00 0.00 0.00 76 1021.1
20260504031456 20 118 3.2 4.8 0.00 0.00 0.00 75 1021.1
20260504030954 20 137 1.6 4.8 0.00 0.00 0.00 75 1021.1
20260504030451 20 106 0.0 3.2 0.00 0.00 0.00 75 1021.4
20260504025946 20 95 0.0 0.0 0.00 0.00 0.00 74 1021.1
20260504025444 20 111 1.6 3.2 0.00 0.00 0.00 74 1021.0
20260504024941 20 102 0.0 3.2 0.00 0.00 0.00 74 1021.0
20260504024438 20 152 1.6 8.0 0.00 0.00 0.00 73 1021.0
20260504023934 20 102 4.8 8.0 0.00 0.00 0.00 73 1020.9
20260504023431 20 118 4.8 4.8 0.00 0.00 0.00 73 1021.0
20260504022926 21 112 1.6 3.2 0.00 0.00 0.00 72 1020.7
20260504022423 21 126 0.0 3.2 0.00 0.00 0.00 72 1020.9
20260504021920 21 101 0.0 0.0 0.00 0.00 0.00 71 1020.7
20260504021417 21 110 0.0 0.0 0.00 0.00 0.00 71 1020.8
20260504020914 21 97 0.0 3.2 0.00 0.00 0.00 70 1020.8
20260504020411 21 105 1.6 4.8 0.00 0.00 0.00 70 1020.8
20260504015908 21 141 1.6 4.8 0.00 0.00 0.00 69 1020.7
20260504015403 21 108 0.0 0.0 0.00 0.00 0.00 69 1020.6
20260504014859 21 120 1.6 3.2 0.00 0.00 0.00 69 1020.7
20260504014356 22 155 12.9 16.1 0.00 0.00 0.00 68 1020.7
20260504013853 22 121 4.8 4.8 0.00 0.00 0.00 67 1020.5
20260504013351 22 114 11.3 16.1 0.00 0.00 0.00 67 1020.7
20260504012847 22 96 3.2 4.8 0.00 0.00 0.00 67 1020.6
20260504012345 22 88 6.4 8.0 0.00 0.00 0.00 66 1020.7
20260504011842 22 135 9.7 14.5 0.00 0.00 0.00 66 1020.5
20260504011339 22 147 3.2 4.8 0.00 0.00 0.00 66 1020.3
20260504010835 22 122 3.2 4.8 0.00 0.00 0.00 65 1020.3
20260504010331 22 149 12.9 16.1 0.00 0.00 0.00 64 1020.3
20260504005827 22 106 11.3 14.5 0.00 0.00 0.00 64 1020.3
20260504005324 23 114 11.3 24.1 0.00 0.00 0.00 64 1020.2
20260504004822 23 124 11.3 14.5 0.00 0.00 0.00 63 1020.4
20260504004319 23 104 8.0 19.3 0.00 0.00 0.00 63 1020.4
20260504003815 23 140 16.1 19.3 0.00 0.00 0.00 63 1020.3
20260504003313 23 112 1.6 3.2 0.00 0.00 0.00 62 1020.4
20260504002809 23 139 11.3 19.3 0.00 0.00 0.00 62 1020.3
20260504002306 23 99 12.9 19.3 0.00 0.00 0.00 62 1020.4
20260504001804 23 145 12.9 24.1 0.00 0.00 0.00 62 1020.6
20260504001301 23 97 11.3 16.1 0.00 0.00 0.00 61 1020.7
20260504000758 24 116 6.4 11.3 0.00 0.00 0.00 61 1020.6
20260504000254 24 109 9.7 16.1 0.00 0.00 0.00 61 1020.7
20260503235752 24 117 6.4 11.3 0.00 0.00 0.00 61 1020.4
20260503235250 24 99 11.3 19.3 0.00 0.00 0.00 60 1020.3
20260503234747 25 90 12.9 22.5 0.00 0.00 0.00 59 1020.5
20260503234245 25 96 14.5 22.5 0.00 0.00 0.00 59 1020.1
20260503233742 25 127 11.3 14.5 0.00 0.00 0.00 59 1020.3
20260503233238 25 86 6.4 11.3 0.00 0.00 0.00 60 1020.2
20260503232735 25 117 6.4 11.3 0.00 0.00 0.00 59 1020.5
20260503232232 25 137 11.3 14.5 0.00 0.00 0.00 58 1020.3
20260503231730 25 129 17.7 24.1 0.00 0.00 0.00 57 1020.4
20260503231226 25 87 16.1 19.3 0.00 0.00 0.00 57 1020.5
20260503230722 25 116 17.7 19.3 0.00 0.00 0.00 57 1020.4
20260503230220 25 132 16.1 19.3 0.00 0.00 0.00 56 1020.5
20260503225717 25 155 12.9 24.1 0.00 0.00 0.00 56 1020.6
20260503225218 25 109 6.4 8.0 0.00 0.00 0.00 56 1020.6
20260503224715 25 143 11.3 19.3 0.00 0.00 0.00 56 1020.6
20260503224213 25 129 4.8 8.0 0.00 0.00 0.00 55 1020.3
20260503223710 25 99 3.2 8.0 0.00 0.00 0.00 55 1020.6
20260503223207 26 97 9.7 19.3 0.00 0.00 0.00 54 1020.7
20260503222704 26 100 4.8 8.0 0.00 0.00 0.00 54 1020.9
20260503222202 26 87 4.8 8.0 0.00 0.00 0.00 54 1020.6
20260503221700 26 152 9.7 11.3 0.00 0.00 0.00 53 1020.8
20260503221157 26 82 11.3 19.3 0.00 0.00 0.00 52 1020.7
20260503220654 26 94 16.1 22.5 0.00 0.00 0.00 54 1020.7
20260503220150 26 133 17.7 24.1 0.00 0.00 0.00 53 1020.7
20260503215647 26 91 14.5 24.1 0.00 0.00 0.00 53 1021.0
20260503215143 26 107 17.7 30.6 0.00 0.00 0.00 54 1021.1
20260503214643 26 97 14.5 19.3 0.00 0.00 0.00 53 1021.1
20260503214138 26 158 17.7 22.5 0.00 0.00 0.00 52 1021.2
20260503213632 26 187 6.4 8.0 0.00 0.00 0.00 53 1021.5
20260503213128 26 136 3.2 11.3 0.00 0.00 0.00 53 1021.6
20260503212625 26 133 9.7 14.5 0.00 0.00 0.00 53 1021.8
20260503212123 25 146 11.3 16.1 0.00 0.00 0.00 54 1021.7
20260503211620 26 141 12.9 16.1 0.00 0.00 0.00 53 1021.7
20260503211116 26 151 16.1 19.3 0.00 0.00 0.00 52 1021.8
20260503210612 26 130 6.4 14.5 0.00 0.00 0.00 53 1021.9
20260503210109 26 124 11.3 16.1 0.00 0.00 0.00 53 1021.7
20260503205605 26 156 11.3 14.5 0.00 0.00 0.00 52 1022.0
20260503205101 26 95 19.3 27.4 0.00 0.00 0.00 52 1022.1
20260503204558 26 162 11.3 14.5 0.00 0.00 0.00 52 1022.2
20260503204055 26 102 4.8 11.3 0.00 0.00 0.00 51 1022.3
20260503203552 26 126 12.9 16.1 0.00 0.00 0.00 52 1022.2
20260503203049 26 112 12.9 19.3 0.00 0.00 0.00 52 1022.2
20260503202547 26 85 8.0 14.5 0.00 0.00 0.00 52 1022.3
20260503202045 26 120 11.3 14.5 0.00 0.00 0.00 51 1022.6
20260503201543 26 135 6.4 8.0 0.00 0.00 0.00 51 1022.4
20260503201040 26 88 19.3 24.1 0.00 0.00 0.00 50 1022.4
20260503200536 26 93 16.1 22.5 0.00 0.00 0.00 52 1022.8
20260503200033 26 146 11.3 16.1 0.00 0.00 0.00 50 1022.7
20260503195530 26 113 4.8 11.3 0.00 0.00 0.00 50 1022.8
20260503195027 27 84 12.9 19.3 0.00 0.00 0.00 49 1022.9
20260503194525 27 135 9.7 16.1 0.00 0.00 0.00 49 1022.9
20260503194024 27 108 11.3 16.1 0.00 0.00 0.00 47 1023.1
20260503193521 27 121 9.7 11.3 0.00 0.00 0.00 47 1023.2
20260503193016 27 149 4.8 8.0 0.00 0.00 0.00 49 1023.0
20260503192512 27 156 9.7 14.5 0.00 0.00 0.00 47 1023.2
20260503192008 26 106 12.9 16.1 0.00 0.00 0.00 48 1023.1
20260503191506 27 132 6.4 11.3 0.00 0.00 0.00 49 1023.2
20260503191002 26 132 4.8 8.0 0.00 0.00 0.00 50 1023.2
20260503190459 27 103 6.4 11.3 0.00 0.00 0.00 49 1023.1
20260503185956 27 135 6.4 14.5 0.00 0.00 0.00 49 1023.4
20260503185452 26 84 3.2 4.8 0.00 0.00 0.00 50 1023.5
20260503184952 26 140 11.3 19.3 0.00 0.00 0.00 51 1023.8
20260503184448 26 87 11.3 14.5 0.00 0.00 0.00 53 1023.5
20260503183945 26 55 8.0 11.3 0.00 0.00 0.00 52 1023.8
20260503183442 26 125 14.5 19.3 0.00 0.00 0.00 51 1023.9
20260503182938 27 72 12.9 22.5 0.00 0.00 0.00 50 1023.8
20260503182437 26 125 6.4 8.0 0.00 0.00 0.00 52 1023.9
20260503181935 27 120 6.4 11.3 0.00 0.00 0.00 50 1024.2
20260503181432 27 184 4.8 8.0 0.00 0.00 0.00 51 1024.2
20260503180927 27 95 1.6 4.8 0.00 0.00 0.00 48 1024.3
20260503180427 26 159 8.0 8.0 0.00 0.00 0.00 50 1024.3
20260503175923 25 109 8.0 11.3 0.00 0.00 0.00 52 1024.5
20260503175421 25 105 9.7 11.3 0.00 0.00 0.00 51 1024.7
20260503174916 26 71 9.7 11.3 0.00 0.00 0.00 50 1024.8
20260503174415 27 82 9.7 11.3 0.00 0.00 0.00 48 1024.7
20260503173914 27 94 3.2 4.8 0.00 0.00 0.00 48 1024.8
20260503173411 26 138 11.3 14.5 0.00 0.00 0.00 50 1024.8
20260503172908 26 21 9.7 14.5 0.00 0.00 0.00 51 1024.8
20260503172406 26 136 4.8 4.8 0.00 0.00 0.00 52 1024.9
20260503171901 26 80 9.7 14.5 0.00 0.00 0.00 50 1024.7
20260503171358 26 114 11.3 14.5 0.00 0.00 0.00 52 1024.9
20260503170856 26 98 12.9 16.1 0.00 0.00 0.00 52 1025.0
20260503170352 26 99 11.3 14.5 0.00 0.00 0.00 49 1024.9
20260503150744 23 49 1.6 3.2 0.00 0.00 0.00 60 1025.6
20260503150240 23 32 4.8 8.0 0.00 0.00 0.00 60 1025.4
20260503140205 20 31 1.6 3.2 0.00 0.00 0.00 73 1025.0
20260503131134 17 348 0.0 0.0 0.00 0.00 0.00 82 1024.9
20260503130632 17 348 0.0 0.0 0.00 0.00 0.00 82 1024.6
20260503130129 17 348 1.6 4.8 0.00 0.00 0.00 82 1024.8
20260503110522 14 344 0.0 0.0 0.00 0.00 0.00 90 1023.4
20260503090408 15 329 0.0 0.0 0.00 0.00 0.00 90 1023.5
20260503081335 15 326 0.0 0.0 0.00 0.00 0.00 89 1024.1
20260503080832 15 326 0.0 0.0 0.00 0.00 0.00 89 1024.0
20260503080329 15 326 0.0 0.0 0.00 0.00 0.00 89 1024.0
20260503072805 15 325 0.0 0.0 0.00 0.00 0.00 88 1024.4
20260503072305 15 324 0.0 0.0 0.00 0.00 0.00 88 1024.4
20260503071758 15 323 0.0 0.0 0.00 0.00 0.00 87 1024.2
20260503071255 15 323 0.0 0.0 0.00 0.00 0.00 87 1024.3
20260503070752 15 322 1.6 3.2 0.00 0.00 0.00 87 1024.5
20260503070250 15 322 0.0 0.0 0.00 0.00 0.00 87 1024.3